Simultaneous Nadir Overpasses (SNOs) Predictions

Prediction of SNOs near US between NOAA-19 and NPP Satellite Orbit:

Table of predicted SNOs near US for the next 10.0 days since TLE Epoch: 10/26/2012
Index Date (NOAA-19) Time (NOAA-19) NOAA-19 Lat,Lon Date (NPP) Time (NPP) NPP Lat,Lon Distance(km) Time Diff (sec)
1 11/03/2012 06:19:27 34.22, -65.31 11/03/2012 06:19:10 34.73, -67.96 249.81 17
2 11/03/2012 07:57:46 47.16, -86.31 11/03/2012 07:56:57 47.60, -88.86 198.11 49
3 11/03/2012 09:40:26 45.15,-112.64 11/03/2012 09:39:02 45.58,-115.05 193.96 84
4 11/03/2012 17:47:09 49.99, -73.96 11/03/2012 17:43:01 49.74, -75.39 106.03 248
5 11/03/2012 19:29:14 49.99, -99.48 11/03/2012 19:24:31 49.74,-100.77 95.96 283
6 11/03/2012 21:11:18 49.93,-124.98 11/03/2012 21:06:01 49.75,-126.14 86.06 317
7 11/04/2012 07:54:45
